Regional Weather Roundup
Issued by NWS

Home | Current Version | Previous Version | Graphics & Text | Print | Product List | Glossary On
Versions: 1 2 3 4 5 6 7 8 9 10 11 12 13 14 15 16 17 18 19 20 21 22 23 24 25 26 27 28 29 30 31 32 33 34 35 36 37 38 39 40 41 42 43 44 45 46 47 48 49 50
000
ASUS44 KMEG 312200
RWRTN
TENNESSEE HOURLY STATE WEATHER ROUNDUP
NATIONAL WEATHER SERVICE MEMPHIS TN
500 PM CDT THU JUL 31 2014

TNZ002-004-019-021-049-052-054-088>092-312300-
WEST TENNESSEE

CITY           SKY/WX    TMP DP  RH WIND       PRES   REMARKS
MEMPHIS INTL   CLOUDY    76  63  64 N7        30.07F
NWS MEMPHIS      N/A     76 N/A N/A MISG        N/A
JACKSON        CLOUDY    80  62  54 N3        30.07F
DYERSBURG      PTSUNNY   75  61  60 NW5       30.09S
UNION CITY     MOSUNNY   77  66  69 N6        30.07F
PARIS          PTSUNNY   75  63  64 W3        30.09F
LEXINGTON      SUNNY     81  63  54 NE5       30.06F
SAVANNAH       CLOUDY    82  63  51 E5        30.07F
$$

TNZ008-025-027-028-033-062-065-066-312300-
NORTH MIDDLE TENNESSEE

CITY           SKY/WX    TMP DP  RH WIND       PRES   REMARKS
NASHVILLE      PTSUNNY   84  55  36 CALM      30.06S
CLARKSVILLE    PTSUNNY   83  54  36 N6        30.06S
COOKEVILLE     SUNNY     82  61  47 NE5       30.08F
CROSSVILLE     CLOUDY    76  58  53 W5        30.13R
$$

TNZ061-075-076-078-094-096-097-312300-
SOUTH MIDDLE TENNESSEE

CITY           SKY/WX    TMP DP  RH WIND       PRES   REMARKS
FAYETTEVILLE   SUNNY     79  57  47 E7        30.08F
TULLAHOMA      SUNNY     79  57  47 N5        30.10S
WINCHESTER     MOSUNNY   81  57  44 NE3       30.08F
COLUMBIA       SUNNY     84  61  45 N5        30.06F
SHELBYVILLE    SUNNY     82  61  47 N7        30.08S
$$

TNZ017-018-042-046-047-312300-
NORTHEAST TENNESSEE

CITY           SKY/WX    TMP DP  RH WIND       PRES   REMARKS
TRI CITIES     PTSUNNY   78  56  46 S10       30.12S
ELIZABETHTON   CLEAR     73  61  64 E8        30.14S
$$

TNZ012-013-036-069-073-074-312300-
CENTRAL EAST TENNESSEE

CITY           SKY/WX    TMP DP  RH WIND       PRES   REMARKS
KNOXVILLE      CLOUDY    80  59  48 CALM      30.08S
OAK RIDGE      PTSUNNY   82  57  42 VRB5      30.09S
GATLINBURG     CLEAR     79  61  53 CALM      30.09S
$$

TNZ083-085-099-312300-
SOUTHEAST TENNESSEE

CITY           SKY/WX    TMP DP  RH WIND       PRES   REMARKS
CHATTANOOGA    CLOUDY    79  62  56 VRB3      30.08S
$$

SKY/WX REPORTED AS FAIR MEANS FEW OR NO CLOUDS BELOW
12 THOUSAND FEET.



USA.gov is the U.S. government's official web portal to all federal, state and local government web resources and services.